Preview of NWS' New Version of Forecast
This preview is not operational and should not be used for support decisions.

Regional Weather Roundup (RWR)

Issued by Gray - Portland, ME (GYX)

                            
000
ASUS41 KGYX 152310
RWRGYX
WEATHER ROUNDUP FOR MAINE AND NEW HAMPSHIRE
NATIONAL WEATHER SERVICE GRAY ME
700 PM EDT MON OCT 15 2018

MEZ002-005-006-010-012-015-018-020-021-024-026-027-029-160000-
MAINE
  
CITY           SKY/WX    TMP DP  RH WIND       PRES   REMARKS
PORTLAND       CLOUDY    59  59 100 S12G21    29.77F FOG              
SANFORD        CLOUDY    58  57  97 SW7       29.78F                  
WISCASSET      CLOUDY    59  58  96 SW9G21    29.79F                  
ROCKLAND       LGT RAIN  58  57  97 S13G22    29.78F                  
FRYEBURG       CLOUDY    46  45  96 SE3       29.76F FOG              
LEWISTONAUBURN LGT RAIN  56  56 100 S9        29.76F                  
AUGUSTA        LGT RAIN  56  56 100 S8G23     29.76F FOG              
BANGOR         LGT RAIN  57  55  93 S20G26    29.76F FOG              
GREENVILLE       N/A     48  48 100 VRB6      29.69F                  
MILLINOCKET    LGT RAIN  52  50  93 S8        29.73F FOG              
HOULTON        LGT RAIN  50  50 100 S9G20     29.71F FOG              
PRESQUE ISLE   LGT RAIN  48  47  96 SE12      29.69F                  
FRENCHVILLE    LGT RAIN  48  44  86 S18G24    29.65F FOG              
CARIBOU        LGT RAIN  49  46  90 S12       29.68F FOG              
$$

NHZ002-005-008-009-011-012-014-160000-
NEW HAMPSHIRE
  
CITY           SKY/WX    TMP DP  RH WIND       PRES   REMARKS
PORTSMOUTH     CLOUDY    61  59  93 SW5       29.78F                  
ROCHESTER      CLOUDY    53  53 100 CALM      29.78F FOG              
NASHUA         LGT RAIN  61  61 100 VRB3      29.78F                  
MANCHESTER     CLOUDY    61  59  93 S10       29.77F                  
CONCORD        CLOUDY    54  54 100 S8        29.78F                  
LACONIA        CLOUDY    51  51 100 W3        29.77F FOG              
PLYMOUTH       CLOUDY    44  43  97 CALM      29.78  FOG              
BERLIN         CLOUDY    51  50  96 CALM      29.70F                  
WHITEFIELD     CLOUDY    49  48  97 CALM      29.70F                  
JAFFREY        LGT RAIN  59  59 100 SW12G21   29.79F                  
KEENE          LGT RAIN  59  57  93 S7        29.77F                  
LEBANON        CLOUDY    57  52  83 S14       29.71F                  
MT WASHINGTON  FOG       41  41 100 W52G70      N/A  VSB 0            
$$

VTZ005-007-008-160000-
VERMONT
  
CITY           SKY/WX    TMP DP  RH WIND       PRES   REMARKS
ST JOHNSBURY     N/A     51  51 100 MISG      29.69F                  
MONTPELIER     CLOUDY    52  51  97 S15       29.71F                  
BURLINGTON     MOCLDY    58  54  86 S16G24    29.65F                  
$$

MAZ007-012-024-CTZ003-RIZ002-NYZ038-NYZ072-160000-
SOUTHERN NEW ENGLAND AND NY
  
CITY           SKY/WX    TMP DP  RH WIND       PRES   REMARKS
BOSTON         LGT RAIN  67  61  81 SW15G24   29.80F                  
WORCESTER      CLOUDY    60  59  96 SW16G23   29.81F                  
NANTUCKET      CLOUDY    64  63  96 S21       29.93F                  
PROVIDENCE     CLOUDY    65  64  97 S12       29.85F                  
HARTFORD       CLOUDY    62  60  93 S13       29.82F                  
ALBANY         LGT RAIN  61  56  83 S14       29.75F                  
NEW YORK CITY  CLOUDY    67  61  81 S13       29.88F                  
$$

ANZ081-ANZ082-ANZ150-NHZ014-MEZ023>029-160000-
COASTAL MARINE OBSERVATIONS
  
STATION/POSITION TIME  TEMP    WIND        PRES    WAVE
                       AIR SEA DIR/SP/G            HT/PER
                 (UTC) (F)     (DEG/KT/KT) (MB)    (FT/S)
MOUNT DESERT ROC 2300   56     150/ 34/ 37 1009.8F
MATINICUS ROCK   2200   56     170/ 35/ 38 1009.8F
ISLE OF SHOALS   2200   60     190/ 21/ 23 1009.2F
JEFFREYS LEDGE   2206      56                N/A     6/ 6
$$

.............KEY..............
   WCI - WIND CHILL
   TC  - TEMPERATURE IN CELSIUS
   VSB - VISIBILITY IN MILES
   HX  - HEAT INDEX
   FAIR- INDICATES FEW OR NO CLOUDS BELOW 12,000 FT, WITH NO 
         SIGNIFICANT WEATHER AND/OR OBSTRUCTIONS TO VISIBILITY.